Tracking 29892 objects as of 21-Nov-2024
HD Live streaming from Space Station
objects crossing your sky now

STARLINK-3773

Track STARLINK-3773 now!
10-day predictions
STARLINK-3773 is classified as:


NORAD ID: 52291
Int'l Code: 2022-041AG
Perigee: 486.4 km
Apogee: 494.4 km
Inclination: 53.2 °
Period: 94.3 minutes
Semi major axis: 6861 km
RCS: Unknown
Launch date: April 21, 2022
Source: United States (US)
Launch site: AIR FORCE EASTERN TEST RANGE (AFETR)
Your satellite tracking list
Your tracking list is empty




NASA's NSSDC Master Catalog

Two Line Element Set (TLE):
1 52291U 22041AG  24325.26772359  .00048555  00000-0  17809-2 0  9999
2 52291  53.2031  56.7459 0005850 205.6398 154.4313 15.27511383143052
Source of the keplerian elements: AFSPC